,,Stat6,,Stat2,,Stat8,,Stat9,,Stat10,,Wind1,,Wind1,
time,status,PA1M_AVG,status,PR1M_SUM,status,RH1M_AVG,status,SR1M_AVG,status,TA1M_AVG,status,W1dAve1m,status,W1sAve1m,
2004-09-13, 00:00:01,VALID,919.927,VALID,0,VALID,99.2093,VALID,-0.118866,VALID,18.9426,VALID,33,VALID,1.1915,
2004-09-13, 00:01:01,VALID,919.936,VALID,0,VALID,99.25,VALID,-0.118866,VALID,18.8935,VALID,12,VALID,1.23065,
2004-09-13, 00:02:00,VALID,919.92,VALID,0,VALID,99.3212,VALID,-0.101885,VALID,18.8612,VALID,32,VALID,0.993056,
2004-09-13, 00:03:01,VALID,919.903,VALID,0,VALID,99.3072,VALID,-0.101885,VALID,18.8162,VALID,24,VALID,0.849301,
2004-09-13, 00:04:00,VALID,919.904,VALID,0,VALID,99.4217,VALID,-0.118866,VALID,18.7777,VALID,27,VALID,0.796365,
2004-09-13, 00:05:01,VALID,919.911,VALID,0,VALID,99.6175,VALID,-0.101885,VALID,18.7581,VALID,46,VALID,0.929492,
2004-09-13, 00:06:01,VALID,919.897,VALID,0,VALID,99.7752,VALID,-0.101885,VALID,18.7549,VALID,46,VALID,0.868712,
2004-09-13, 00:07:00,VALID,919.876,VALID,0,VALID,99.8388,VALID,-0.0849042,VALID,18.7417,VALID,46,VALID,0.867188,
2004-09-13, 00:08:00,VALID,919.865,VALID,0,VALID,99.8616,VALID,-0.0849042,VALID,18.7392,VALID,48,VALID,0.826126,
2004-09-13, 00:09:01,VALID,919.841,VALID,0,VALID,99.9023,VALID,-0.101885,VALID,18.7221,VALID,58,VALID,0.886446,
2004-09-13, 00:10:00,VALID,919.812,VALID,0,VALID,99.957,VALID,-0.0679233,VALID,18.7216,VALID,66,VALID,0.567708,
2004-09-13, 00:11:01,VALID,919.819,VALID,0,VALID,99.9634,VALID,0,VALID,18.7184,VALID,79,VALID,0.598292,
2004-09-13, 00:12:01,VALID,919.8,VALID,0,VALID,99.999,VALID,0,VALID,18.715,VALID,124,VALID,0.755451,
2004-09-13, 00:13:01,VALID,919.794,VALID,0,VALID,100,VALID,-0.0339617,VALID,18.7311,VALID,147,VALID,0.501116,
2004-09-13, 00:14:01,VALID,919.786,VALID,0,VALID,100,VALID,0,VALID,18.7274,VALID,123,VALID,0.851172,
2004-09-13, 00:15:01,VALID,919.762,VALID,0,VALID,100,VALID,0.0169808,VALID,18.7209,VALID,131,VALID,1.27077,
2004-09-13, 00:16:01,VALID,919.729,VALID,0,VALID,100,VALID,0.0339617,VALID,18.7177,VALID,122,VALID,1.31319,
2004-09-13, 00:17:01,VALID,919.715,VALID,0,VALID,100,VALID,0,VALID,18.7242,VALID,122,VALID,0.981424,
2004-09-13, 00:18:01,VALID,919.694,VALID,0,VALID,100,VALID,0,VALID,18.7306,VALID,116,VALID,1.19048,
2004-09-13, 00:19:00,VALID,919.681,VALID,0,VALID,100,VALID,-0.0169808,VALID,18.7276,VALID,123,VALID,1.28089,
2004-09-13, 00:20:00,VALID,919.673,VALID,0,VALID,100,VALID,0,VALID,18.7242,VALID,135,VALID,1.73066,
2004-09-13, 00:21:00,VALID,919.667,VALID,0,VALID,100,VALID,0,VALID,18.7535,VALID,118,VALID,1.25672,
2004-09-13, 00:22:01,VALID,919.664,VALID,0,VALID,100,VALID,0,VALID,18.7728,VALID,118,VALID,1.32695,
2004-09-13, 00:23:01,VALID,919.669,VALID,0,VALID,100,VALID,-0.0169808,VALID,18.8019,VALID,88,VALID,1.43732,
2004-09-13, 00:24:01,VALID,919.658,VALID,0,VALID,99.9964,VALID,0,VALID,18.8374,VALID,45,VALID,1.13645,
2004-09-13, 00:25:01,VALID,919.657,VALID,0,VALID,99.8451,VALID,0.0339617,VALID,18.8923,VALID,66,VALID,1.19949,
2004-09-13, 00:26:01,VALID,919.647,VALID,0,VALID,99.5527,VALID,0.0339617,VALID,18.9439,VALID,70,VALID,1.23064,
2004-09-13, 00:27:01,VALID,919.621,VALID,0,VALID,99.2208,VALID,0.0679233,VALID,18.9787,VALID,62,VALID,1.34648,
2004-09-13, 00:28:01,VALID,919.61,VALID,0,VALID,98.9563,VALID,0.101885,VALID,19.0242,VALID,65,VALID,1.52535,
2004-09-13, 00:29:01,VALID,919.589,VALID,0,VALID,98.7083,VALID,0.0679233,VALID,19.0597,VALID,63,VALID,1.41959,
2004-09-13, 00:30:01,VALID,919.564,VALID,0,VALID,98.4807,VALID,0.0679233,VALID,19.0828,VALID,66,VALID,0.903963,
2004-09-13, 00:31:01,VALID,919.54,VALID,0,VALID,98.3802,VALID,0.0509425,VALID,19.0698,VALID,95,VALID,0.509301,
2004-09-13, 00:32:01,VALID,919.541,VALID,0,VALID,98.3612,VALID,0.0339617,VALID,19.0599,VALID,116,VALID,0.621652,
2004-09-13, 00:33:01,VALID,919.528,VALID,0,VALID,98.4616,VALID,0.0849042,VALID,19.0438,VALID,128,VALID,0.878551,
2004-09-13, 00:34:01,VALID,919.516,VALID,0,VALID,98.5697,VALID,0.0509425,VALID,19.0276,VALID,137,VALID,0.727628,
2004-09-13, 00:35:01,VALID,919.492,VALID,0,VALID,98.7108,VALID,0.0339617,VALID,19.0152,VALID,136,VALID,0.465183,
2004-09-13, 00:36:01,VALID,919.486,VALID,0,VALID,98.8367,VALID,0.0679233,VALID,18.9787,VALID,130,VALID,0.257102,
2004-09-13, 00:37:01,VALID,919.462,VALID,0,VALID,98.8914,VALID,0.0849042,VALID,18.9695,VALID,121,VALID,0.472384,
2004-09-13, 00:38:01,VALID,919.449,VALID,0,VALID,98.9245,VALID,0.0849042,VALID,18.9303,VALID,90,VALID,0.606658,
2004-09-13, 00:39:01,VALID,919.415,VALID,0,VALID,99.0059,VALID,0.0849042,VALID,18.8948,VALID,123,VALID,1.01339,
2004-09-13, 00:40:01,VALID,919.375,VALID,0,VALID,99.0135,VALID,0,VALID,18.8955,VALID,89,VALID,0.905231,
2004-09-13, 00:41:01,VALID,919.353,VALID,0,VALID,98.9715,VALID,0,VALID,18.8902,VALID,46,VALID,0.827934,
2004-09-13, 00:42:01,VALID,919.327,VALID,0,VALID,99.1165,VALID,-0.0169808,VALID,18.8706,VALID,98,VALID,0.647711,
2004-09-13, 00:43:01,VALID,919.325,VALID,0,VALID,99.0745,VALID,-0.0339617,VALID,18.8997,VALID,92,VALID,0.972479,
2004-09-13, 00:44:01,VALID,919.311,VALID,0,VALID,98.8342,VALID,-0.0679233,VALID,18.9449,VALID,91,VALID,1.10756,
2004-09-13, 00:45:01,VALID,919.299,VALID,0,VALID,98.6218,VALID,-0.0509425,VALID,18.9903,VALID,52,VALID,1.33403,
2004-09-13, 00:46:01,VALID,919.289,VALID,0,VALID,98.4464,VALID,-0.0849042,VALID,19.0487,VALID,54,VALID,1.05273,
2004-09-13, 00:47:01,VALID,919.265,VALID,0,VALID,98.2416,VALID,-0.0679233,VALID,19.0812,VALID,67,VALID,1.23865,
2004-09-13, 00:48:01,VALID,919.258,VALID,0,VALID,97.9212,VALID,-0.0849042,VALID,19.1426,VALID,52,VALID,1.65607,
2004-09-13, 00:49:01,VALID,919.234,VALID,0,VALID,97.4774,VALID,-0.0169808,VALID,19.197,VALID,52,VALID,1.20868,
2004-09-13, 00:50:01,VALID,919.224,VALID,0,VALID,97.1086,VALID,-0.0169808,VALID,19.2424,VALID,47,VALID,1.66832,
2004-09-13, 00:51:01,VALID,919.185,VALID,0,VALID,96.7895,VALID,-0.0339617,VALID,19.274,VALID,45,VALID,0.955729,
2004-09-13, 00:52:01,VALID,919.156,VALID,0,VALID,96.5835,VALID,-0.0679233,VALID,19.2938,VALID,43,VALID,1.17262,
2004-09-13, 00:53:00,VALID,919.143,VALID,0,VALID,96.5288,VALID,-0.0679233,VALID,19.268,VALID,48,VALID,1.07734,
2004-09-13, 00:54:00,VALID,919.101,VALID,0,VALID,96.5186,VALID,-0.0679233,VALID,19.2516,VALID,72,VALID,1.13427,
2004-09-13, 00:55:00,VALID,919.072,VALID,0,VALID,96.3202,VALID,-0.0169808,VALID,19.2809,VALID,67,VALID,1.81917,
2004-09-13, 00:56:00,VALID,919.073,VALID,0,VALID,95.9209,VALID,-0.0509425,VALID,19.3261,VALID,46,VALID,1.26753,
2004-09-13, 00:57:00,VALID,919.067,VALID,0,VALID,95.94,VALID,-0.0849042,VALID,19.31,VALID,47,VALID,1.1809,
2004-09-13, 00:58:00,VALID,919.076,VALID,0,VALID,96.0265,VALID,-0.0679233,VALID,19.274,VALID,45,VALID,1.50686,
2004-09-13, 00:59:00,VALID,919.076,VALID,0,VALID,96.2414,VALID,-0.0169808,VALID,19.2323,VALID,68,VALID,1.3181,
2004-09-13, 01:00:00,VALID,919.07,VALID,0,VALID,96.2694,VALID,-0.0849042,VALID,19.2419,VALID,52,VALID,1.46039,
2004-09-13, 01:01:00,VALID,919.062,VALID,0,VALID,96.174,VALID,-0.0509425,VALID,19.2586,VALID,57,VALID,1.3552,
2004-09-13, 01:02:00,VALID,919.061,VALID,0,VALID,96.1511,VALID,-0.0339617,VALID,19.2648,VALID,69,VALID,1.04251,
2004-09-13, 01:03:00,VALID,919.05,VALID,0,VALID,96.1422,VALID,-0.0679233,VALID,19.2645,VALID,78,VALID,0.675327,
2004-09-13, 01:04:00,VALID,919.039,VALID,0,VALID,96.1613,VALID,-0.0169808,VALID,19.2613,VALID,103,VALID,0.85831,
2004-09-13, 01:05:00,VALID,919.048,VALID,0,VALID,96.1791,VALID,-0.0849042,VALID,19.2576,VALID,150,VALID,0.842115,
2004-09-13, 01:06:00,VALID,919.042,VALID,0,VALID,96.2592,VALID,-0.0509425,VALID,19.2546,VALID,175,VALID,0.640262,
2004-09-13, 01:07:00,VALID,919.036,VALID,0,VALID,96.4258,VALID,-0.0679233,VALID,19.2293,VALID,198,VALID,0.141026,
2004-09-13, 01:08:00,VALID,919.029,VALID,0,VALID,96.6,VALID,-0.0339617,VALID,19.1935,VALID,186,VALID,0.425604,
2004-09-13, 01:09:00,VALID,919.038,VALID,0,VALID,96.8708,VALID,-0.0169808,VALID,19.158,VALID,151,VALID,0.742733,
2004-09-13, 01:10:00,VALID,919.034,VALID,0,VALID,96.9865,VALID,-0.0509425,VALID,19.1322,VALID,122,VALID,0.675145,
2004-09-13, 01:11:00,VALID,918.999,VALID,0,VALID,97.0934,VALID,-0.0509425,VALID,19.1066,VALID,120,VALID,0.297805,
2004-09-13, 01:12:00,VALID,918.984,VALID,0,VALID,97.2485,VALID,-0.0849042,VALID,19.0964,VALID,120,VALID,0.488991,
2004-09-13, 01:13:00,VALID,918.978,VALID,0,VALID,97.2867,VALID,-0.0339617,VALID,19.0934,VALID,120,VALID,0.100347,
2004-09-13, 01:14:00,VALID,918.964,VALID,0,VALID,97.1811,VALID,-0.0169808,VALID,19.084,VALID,120,VALID,0.237645,
2004-09-13, 01:15:00,VALID,918.949,VALID,0,VALID,97.2777,VALID,-0.0509425,VALID,19.0775,VALID,120,VALID,0.346354,
2004-09-13, 01:16:00,VALID,918.946,VALID,0,VALID,97.2078,VALID,-0.0339617,VALID,19.074,VALID,120,VALID,0.300781,
2004-09-13, 01:17:00,VALID,918.935,VALID,0,VALID,97.1379,VALID,-0.0339617,VALID,19.0773,VALID,120,VALID,0.0405506,
2004-09-13, 01:18:00,VALID,918.916,VALID,0,VALID,97.1862,VALID,0,VALID,19.0773,VALID,167,VALID,0.591619,
2004-09-13, 01:19:00,VALID,918.907,VALID,0,VALID,97.2256,VALID,-0.0679233,VALID,19.0872,VALID,193,VALID,0.338477,
2004-09-13, 01:20:00,VALID,918.893,VALID,0,VALID,97.1137,VALID,-0.0509425,VALID,19.1033,VALID,193,VALID,0.159817,
2004-09-13, 01:21:00,VALID,918.892,VALID,0,VALID,97.0069,VALID,-0.0509425,VALID,19.1031,VALID,193,VALID,0.0788352,
2004-09-13, 01:22:00,VALID,918.878,VALID,0,VALID,97.0527,VALID,-0.0339617,VALID,19.1165,VALID,193,VALID,0.341992,
2004-09-13, 01:23:00,VALID,918.856,VALID,0,VALID,96.9497,VALID,-0.0339617,VALID,19.1227,VALID,206,VALID,0.470022,
2004-09-13, 01:24:00,VALID,918.877,VALID,0,VALID,96.8797,VALID,-0.0509425,VALID,19.084,VALID,223,VALID,0.272274,
2004-09-13, 01:25:00,VALID,918.891,VALID,0,VALID,97.1964,VALID,-0.0509425,VALID,19.0646,VALID,223,VALID,0.273996,
2004-09-13, 01:26:00,VALID,918.9,VALID,0,VALID,97.3159,VALID,-0.0339617,VALID,19.0524,VALID,223,VALID,0.0843023,
2004-09-13, 01:27:00,VALID,918.905,VALID,0,VALID,97.3604,VALID,-0.0509425,VALID,19.0127,VALID,223,VALID,0.0264137,
2004-09-13, 01:28:00,VALID,918.892,VALID,0,VALID,97.5079,VALID,-0.0679233,VALID,18.9836,VALID,221,VALID,0.447516,
2004-09-13, 01:29:00,VALID,918.891,VALID,0,VALID,97.663,VALID,-0.0509425,VALID,18.968,VALID,208,VALID,0.20277,
2004-09-13, 01:30:00,VALID,918.878,VALID,0,VALID,97.8067,VALID,-0.0509425,VALID,18.9516,VALID,208,VALID,0.461538,
2004-09-13, 01:31:00,VALID,918.895,VALID,0,VALID,97.9225,VALID,-0.0509425,VALID,18.9387,VALID,204,VALID,0.458629,
2004-09-13, 01:32:00,VALID,918.897,VALID,0,VALID,97.9136,VALID,-0.0339617,VALID,18.923,VALID,200,VALID,0.0801235,
2004-09-13, 01:33:00,VALID,918.894,VALID,0,VALID,97.8106,VALID,-0.0339617,VALID,18.8776,VALID,200,VALID,0.402902,
2004-09-13, 01:34:00,VALID,918.9,VALID,0,VALID,97.9301,VALID,-0.0509425,VALID,18.8254,VALID,191,VALID,0.358141,
2004-09-13, 01:35:00,VALID,918.895,VALID,0,VALID,98.0992,VALID,-0.0849042,VALID,18.813,VALID,189,VALID,0.209162,
2004-09-13, 01:36:00,VALID,918.883,VALID,0,VALID,98.2302,VALID,-0.0849042,VALID,18.8135,VALID,153,VALID,0.318452,
2004-09-13, 01:37:00,VALID,918.868,VALID,0,VALID,98.0522,VALID,-0.101885,VALID,18.7909,VALID,121,VALID,0.355097,
2004-09-13, 01:38:00,VALID,918.85,VALID,0,VALID,98.1984,VALID,-0.0679233,VALID,18.7809,VALID,167,VALID,0.685454,
2004-09-13, 01:39:00,VALID,918.821,VALID,0,VALID,98.4273,VALID,-0.0849042,VALID,18.8224,VALID,167,VALID,1.10653,
2004-09-13, 01:40:00,VALID,918.821,VALID,0,VALID,98.1386,VALID,-0.0339617,VALID,18.9002,VALID,180,VALID,0.921693,
2004-09-13, 01:41:00,VALID,918.807,VALID,0,VALID,97.6389,VALID,-0.0849042,VALID,18.9131,VALID,182,VALID,0.554116,
2004-09-13, 01:42:00,VALID,918.808,VALID,0,VALID,97.1086,VALID,-0.0679233,VALID,18.8847,VALID,174,VALID,0.575648,
2004-09-13, 01:43:00,VALID,918.8,VALID,0,VALID,97.3566,VALID,-0.101885,VALID,18.8298,VALID,187,VALID,0.609961,
2004-09-13, 01:44:00,VALID,918.783,VALID,0,VALID,97.8398,VALID,-0.0849042,VALID,18.8229,VALID,183,VALID,0.803686,
2004-09-13, 01:45:00,VALID,918.792,VALID,0,VALID,97.9797,VALID,-0.0679233,VALID,18.8197,VALID,198,VALID,0.299733,
2004-09-13, 01:46:00,VALID,918.798,VALID,0,VALID,97.7686,VALID,-0.0679233,VALID,18.8033,VALID,174,VALID,0.217507,
2004-09-13, 01:47:00,VALID,918.789,VALID,0,VALID,97.5333,VALID,-0.0679233,VALID,18.7131,VALID,111,VALID,0.694222,
2004-09-13, 01:48:00,VALID,918.797,VALID,0,VALID,98.1577,VALID,-0.0679233,VALID,18.6968,VALID,145,VALID,0.59096,
2004-09-13, 01:49:00,VALID,918.794,VALID,0,VALID,98.3917,VALID,-0.0679233,VALID,18.6995,VALID,137,VALID,0.494549,
2004-09-13, 01:50:00,VALID,918.807,VALID,0,VALID,98.3548,VALID,-0.0849042,VALID,18.7159,VALID,156,VALID,0.938033,
2004-09-13, 01:51:00,VALID,918.801,VALID,0,VALID,98.3027,VALID,-0.0509425,VALID,18.7387,VALID,150,VALID,0.268643,
2004-09-13, 01:52:00,VALID,918.797,VALID,0,VALID,98.1653,VALID,-0.0849042,VALID,18.7261,VALID,143,VALID,0.790153,
2004-09-13, 01:53:00,VALID,918.783,VALID,0,VALID,98.1348,VALID,-0.0679233,VALID,18.8229,VALID,133,VALID,1.46733,
2004-09-13, 01:54:00,VALID,918.763,VALID,0,VALID,97.2078,VALID,-0.0339617,VALID,18.9647,VALID,128,VALID,1.10494,
2004-09-13, 01:55:00,VALID,918.756,VALID,0,VALID,96.3851,VALID,-0.0169808,VALID,19.08,VALID,95,VALID,0.594295,
2004-09-13, 01:56:00,VALID,918.742,VALID,0,VALID,96.1536,VALID,0.0679233,VALID,19.1379,VALID,104,VALID,1.00642,
2004-09-13, 01:57:00,VALID,918.731,VALID,0,VALID,95.823,VALID,0.0509425,VALID,19.2546,VALID,141,VALID,1.33708,
2004-09-13, 01:58:00,VALID,918.732,VALID,0,VALID,95.3233,VALID,0.0509425,VALID,19.3738,VALID,154,VALID,1.10901,
2004-09-13, 01:59:00,VALID,918.731,VALID,0,VALID,94.7498,VALID,0.0849042,VALID,19.4804,VALID,154,VALID,1.68368,
2004-09-13, 02:00:00,VALID,918.749,VALID,0,VALID,94.011,VALID,0.0509425,VALID,19.5994,VALID,151,VALID,1.62538,
2004-09-13, 02:01:00,VALID,918.733,VALID,0,VALID,93.6104,VALID,0.0339617,VALID,19.6734,VALID,153,VALID,1.27773,
2004-09-13, 02:02:00,VALID,918.72,VALID,0,VALID,93.51,VALID,0.0509425,VALID,19.7161,VALID,167,VALID,1.12448,
2004-09-13, 02:03:00,VALID,918.702,VALID,0,VALID,93.3345,VALID,0.0169808,VALID,19.7444,VALID,157,VALID,1.10956,
2004-09-13, 02:04:00,VALID,918.675,VALID,0,VALID,93.07,VALID,0.0679233,VALID,19.7902,VALID,162,VALID,1.74695,
2004-09-13, 02:05:00,VALID,918.651,VALID,0,VALID,92.5754,VALID,0.0339617,VALID,19.8838,VALID,164,VALID,1.51674,
2004-09-13, 02:06:00,VALID,918.65,VALID,0,VALID,91.9497,VALID,0.0679233,VALID,19.9998,VALID,173,VALID,1.89916,
2004-09-13, 02:07:00,VALID,918.642,VALID,0,VALID,91.4258,VALID,0.0509425,VALID,20.1166,VALID,163,VALID,1.30333,
2004-09-13, 02:08:00,VALID,918.638,VALID,0,VALID,91.1944,VALID,0.0509425,VALID,20.1484,VALID,165,VALID,1.60603,
2004-09-13, 02:09:00,VALID,918.643,VALID,0,VALID,91.0494,VALID,0.0339617,VALID,20.1933,VALID,172,VALID,1.08727,
2004-09-13, 02:10:00,VALID,918.634,VALID,0,VALID,90.9973,VALID,0.0509425,VALID,20.1901,VALID,198,VALID,0.853871,
2004-09-13, 02:11:00,VALID,918.65,VALID,0,VALID,91.0494,VALID,0.0169808,VALID,20.2003,VALID,188,VALID,1.04497,
2004-09-13, 02:12:00,VALID,918.664,VALID,0,VALID,91.2351,VALID,0,VALID,20.1678,VALID,189,VALID,0.959375,
2004-09-13, 02:13:00,VALID,918.666,VALID,0,VALID,91.5568,VALID,0,VALID,20.1255,VALID,186,VALID,0.476181,
2004-09-13, 02:14:00,VALID,918.677,VALID,0,VALID,91.6903,VALID,-0.0169808,VALID,20.0873,VALID,148,VALID,0.404916,
2004-09-13, 02:15:00,VALID,918.675,VALID,0,VALID,91.6217,VALID,0,VALID,20.0455,VALID,116,VALID,0.371189,
2004-09-13, 02:16:00,VALID,918.675,VALID,0,VALID,91.8925,VALID,-0.0169808,VALID,19.9479,VALID,94,VALID,0.322316,
2004-09-13, 02:17:00,VALID,918.649,VALID,0,VALID,92.4444,VALID,0,VALID,19.8388,VALID,94,VALID,0.191406,
2004-09-13, 02:18:00,VALID,918.639,VALID,0,VALID,93.1819,VALID,0,VALID,19.6901,VALID,148,VALID,0.74564,
2004-09-13, 02:19:00,VALID,918.625,VALID,0,VALID,94.2857,VALID,-0.0169808,VALID,19.5703,VALID,260,VALID,0.591264,
2004-09-13, 02:20:00,VALID,918.617,VALID,0,VALID,94.9634,VALID,-0.0169808,VALID,19.4866,VALID,239,VALID,0.527166,
2004-09-13, 02:21:00,VALID,918.615,VALID,0,VALID,95.5102,VALID,-0.0509425,VALID,19.3992,VALID,239,VALID,0.0369318,
2004-09-13, 02:22:00,VALID,918.598,VALID,0,VALID,95.3449,VALID,0,VALID,19.303,VALID,347,VALID,0.69215,
2004-09-13, 02:23:00,VALID,918.595,VALID,0,VALID,95.6158,VALID,0,VALID,19.1729,VALID,35,VALID,0.765807,
2004-09-13, 02:24:00,VALID,918.564,VALID,0,VALID,96.174,VALID,-0.0169808,VALID,19.0924,VALID,32,VALID,0.575838,
2004-09-13, 02:25:00,VALID,918.553,VALID,0,VALID,96.1778,VALID,-0.0679233,VALID,18.9961,VALID,33,VALID,0.552591,
2004-09-13, 02:26:00,VALID,918.535,VALID,0,VALID,96.6547,VALID,-0.101885,VALID,18.9295,VALID,52,VALID,1.02525,
2004-09-13, 02:27:00,VALID,918.512,VALID,0,VALID,97.471,VALID,-0.101885,VALID,18.9202,VALID,55,VALID,0.95148,
2004-09-13, 02:28:00,VALID,918.499,VALID,0,VALID,97.4392,VALID,-0.118866,VALID,18.9747,VALID,55,VALID,1.00053,
2004-09-13, 02:29:00,VALID,918.464,VALID,0,VALID,96.9217,VALID,-0.118866,VALID,19.0129,VALID,33,VALID,0.730655,
2004-09-13, 02:30:00,VALID,918.454,VALID,0,VALID,96.2198,VALID,-0.118866,VALID,18.9908,VALID,55,VALID,1.0709,
2004-09-13, 02:31:00,VALID,918.439,VALID,0,VALID,96.9726,VALID,-0.135847,VALID,18.962,VALID,66,VALID,0.927379,
2004-09-13, 02:32:00,VALID,918.449,VALID,0,VALID,96.7831,VALID,-0.118866,VALID,19.03,VALID,72,VALID,1.01705,
2004-09-13, 02:33:00,VALID,918.435,VALID,0,VALID,96.7424,VALID,-0.118866,VALID,19.1301,VALID,75,VALID,1.0149,
2004-09-13, 02:34:00,VALID,918.471,VALID,0,VALID,95.3653,VALID,-0.101885,VALID,19.2494,VALID,106,VALID,0.95625,
2004-09-13, 02:35:00,VALID,918.485,VALID,0,VALID,94.8935,VALID,-0.101885,VALID,19.2524,VALID,143,VALID,1.39156,
2004-09-13, 02:36:00,VALID,918.489,VALID,0,VALID,95.453,VALID,-0.118866,VALID,19.1912,VALID,144,VALID,1.23003,
2004-09-13, 02:37:00,VALID,918.484,VALID,0,VALID,96.2363,VALID,-0.118866,VALID,19.0879,VALID,155,VALID,1.31143,
2004-09-13, 02:38:00,VALID,918.485,VALID,0,VALID,96.9827,VALID,-0.118866,VALID,19.0044,VALID,123,VALID,0.767442,
2004-09-13, 02:39:00,VALID,918.483,VALID,0,VALID,97.3019,VALID,-0.118866,VALID,18.888,VALID,134,VALID,1.09084,
2004-09-13, 02:40:00,VALID,918.46,VALID,0,VALID,97.8868,VALID,-0.0509425,VALID,18.7934,VALID,127,VALID,1.00373,
2004-09-13, 02:41:00,VALID,918.446,VALID,0,VALID,98.3459,VALID,0,VALID,18.738,VALID,123,VALID,0.853849,
2004-09-13, 02:42:00,VALID,918.426,VALID,0,VALID,98.6447,VALID,0,VALID,18.6665,VALID,143,VALID,0.834985,
2004-09-13, 02:43:00,VALID,918.416,VALID,0,VALID,99.0694,VALID,0,VALID,18.6635,VALID,131,VALID,0.933333,
2004-09-13, 02:44:00,VALID,918.398,VALID,0,VALID,99.3047,VALID,-0.0339617,VALID,18.6476,VALID,138,VALID,0.84157,
2004-09-13, 02:45:00,VALID,918.384,VALID,0,VALID,99.6289,VALID,-0.0169808,VALID,18.6601,VALID,112,VALID,0.788681,
2004-09-13, 02:46:00,VALID,918.365,VALID,0,VALID,99.8388,VALID,0,VALID,18.712,VALID,115,VALID,0.726181,
2004-09-13, 02:47:00,VALID,918.355,VALID,0,VALID,99.704,VALID,0.0169808,VALID,18.7765,VALID,103,VALID,1.02889,
2004-09-13, 02:48:00,VALID,918.33,VALID,0,VALID,99.3034,VALID,0,VALID,18.8404,VALID,130,VALID,0.707031,
2004-09-13, 02:49:00,VALID,918.328,VALID,0,VALID,98.6892,VALID,-0.0169808,VALID,18.9186,VALID,135,VALID,0.525,
2004-09-13, 02:50:00,VALID,918.332,VALID,0,VALID,98.2149,VALID,-0.0169808,VALID,18.9802,VALID,135,VALID,0.808503,
2004-09-13, 02:51:00,VALID,918.332,VALID,0,VALID,97.7304,VALID,0,VALID,19.0191,VALID,146,VALID,0.689024,
2004-09-13, 02:52:00,VALID,918.33,VALID,0,VALID,97.5422,VALID,-0.0169808,VALID,19.0579,VALID,117,VALID,0.590554,
2004-09-13, 02:53:00,VALID,918.321,VALID,0,VALID,97.1544,VALID,-0.0509425,VALID,19.087,VALID,114,VALID,0.341273,
2004-09-13, 02:54:00,VALID,918.318,VALID,0,VALID,96.8556,VALID,0,VALID,19.0991,VALID,127,VALID,0.436198,
2004-09-13, 02:55:00,VALID,918.305,VALID,0,VALID,96.4372,VALID,-0.0169808,VALID,19.0991,VALID,137,VALID,0.264172,
2004-09-13, 02:56:00,VALID,918.308,VALID,0,VALID,96.3825,VALID,0,VALID,19.1058,VALID,137,VALID,0.0991848,
2004-09-13, 02:57:00,VALID,918.308,VALID,0,VALID,96.4054,VALID,-0.0169808,VALID,19.1061,VALID,84,VALID,0.419457,
2004-09-13, 02:58:00,VALID,918.283,VALID,0,VALID,96.5288,VALID,0,VALID,19.1255,VALID,85,VALID,0.292259,
2004-09-13, 02:59:00,VALID,918.272,VALID,0,VALID,96.3139,VALID,0,VALID,19.1312,VALID,93,VALID,0.0617378,
2004-09-13, 03:00:00,VALID,918.254,VALID,0,VALID,96.0875,VALID,-0.0169808,VALID,19.1245,VALID,53,VALID,0.304142,
2004-09-13, 03:01:00,VALID,918.254,VALID,0,VALID,96.099,VALID,-0.0169808,VALID,19.122,VALID,47,VALID,0.384766,
2004-09-13, 03:02:00,VALID,918.233,VALID,0,VALID,95.6959,VALID,0,VALID,19.0929,VALID,80,VALID,0.698038,
2004-09-13, 03:03:00,VALID,918.206,VALID,0,VALID,96.1079,VALID,-0.0339617,VALID,19.0805,VALID,89,VALID,0.85423,
2004-09-13, 03:04:00,VALID,918.191,VALID,0,VALID,95.9718,VALID,-0.0169808,VALID,19.1287,VALID,70,VALID,0.93457,
2004-09-13, 03:05:00,VALID,918.173,VALID,0,VALID,95.1351,VALID,0,VALID,19.0835,VALID,50,VALID,0.878606,
2004-09-13, 03:06:00,VALID,918.171,VALID,0,VALID,95.9782,VALID,-0.0169808,VALID,19.0614,VALID,51,VALID,0.577148,
2004-09-13, 03:07:00,VALID,918.14,VALID,0,VALID,96.5987,VALID,-0.0339617,VALID,19.0577,VALID,124,VALID,0.680618,
2004-09-13, 03:08:00,VALID,918.148,VALID,0,VALID,96.2834,VALID,-0.0339617,VALID,19.0733,VALID,95,VALID,1.15044,
2004-09-13, 03:09:00,VALID,918.141,VALID,0,VALID,96.1295,VALID,0,VALID,19.1158,VALID,93,VALID,0.717262,
2004-09-13, 03:10:00,VALID,918.146,VALID,0,VALID,96.202,VALID,-0.0339617,VALID,19.1448,VALID,93,VALID,0.74929,
2004-09-13, 03:11:00,VALID,918.146,VALID,0,VALID,96.1346,VALID,-0.0849042,VALID,19.1977,VALID,85,VALID,0.816992,
2004-09-13, 03:12:00,VALID,918.153,VALID,0,VALID,95.9311,VALID,-0.101885,VALID,19.2327,VALID,58,VALID,0.875533,
2004-09-13, 03:13:00,VALID,918.135,VALID,0,VALID,95.5128,VALID,-0.0679233,VALID,19.2551,VALID,76,VALID,0.536776,
2004-09-13, 03:14:00,VALID,918.131,VALID,0,VALID,95.4759,VALID,-0.0679233,VALID,19.2553,VALID,62,VALID,0.523619,
2004-09-13, 03:15:00,VALID,918.135,VALID,0,VALID,95.5852,VALID,-0.101885,VALID,19.2687,VALID,65,VALID,0.674107,
2004-09-13, 03:16:00,VALID,918.096,VALID,0,VALID,95.8892,VALID,-0.101885,VALID,19.2715,VALID,85,VALID,0.714558,
2004-09-13, 03:17:00,VALID,918.082,VALID,0,VALID,95.6933,VALID,-0.101885,VALID,19.3102,VALID,104,VALID,0.625,
2004-09-13, 03:18:00,VALID,918.065,VALID,0,VALID,95.2292,VALID,-0.101885,VALID,19.3269,VALID,109,VALID,0.382999,
2004-09-13, 03:19:00,VALID,918.043,VALID,0,VALID,95.102,VALID,-0.0679233,VALID,19.3005,VALID,109,VALID,0.0935547,
2004-09-13, 03:20:00,VALID,918.024,VALID,0,VALID,95.1389,VALID,-0.101885,VALID,19.2685,VALID,109,VALID,0.157158,
2004-09-13, 03:21:00,VALID,918.048,VALID,0,VALID,94.9215,VALID,-0.0849042,VALID,19.2166,VALID,109,VALID,0.114025,
2004-09-13, 03:22:00,VALID,918.052,VALID,0,VALID,95.055,VALID,-0.0849042,VALID,19.149,VALID,110,VALID,0.368096,
2004-09-13, 03:23:00,VALID,918.044,VALID,0,VALID,95.6323,VALID,-0.0509425,VALID,19.0937,VALID,110,VALID,0.356957,
2004-09-13, 03:24:00,VALID,918.057,VALID,0,VALID,96.0354,VALID,-0.0849042,VALID,19.0589,VALID,110,VALID,0.230015,
2004-09-13, 03:25:00,VALID,918.061,VALID,0,VALID,96.338,VALID,-0.0339617,VALID,19.0189,VALID,110,VALID,0.106957,
2004-09-13, 03:26:00,VALID,918.065,VALID,0,VALID,96.5377,VALID,0.0169808,VALID,18.9988,VALID,110,VALID,0.151989,
2004-09-13, 03:27:00,VALID,918.075,VALID,0,VALID,96.1905,VALID,0.0509425,VALID,18.9539,VALID,110,VALID,0.231831,
2004-09-13, 03:28:00,VALID,918.064,VALID,0,VALID,96.82,VALID,0.0169808,VALID,18.9372,VALID,164,VALID,1.07413,
2004-09-13, 03:29:00,VALID,918.083,VALID,0,VALID,96.6381,VALID,0,VALID,18.9601,VALID,151,VALID,0.329578,
2004-09-13, 03:30:00,VALID,918.092,VALID,0,VALID,96.2821,VALID,0,VALID,18.938,VALID,66,VALID,0.296148,
2004-09-13, 03:31:00,VALID,918.106,VALID,0,VALID,96.1715,VALID,0,VALID,18.8985,VALID,39,VALID,0.481944,
2004-09-13, 03:32:00,VALID,918.085,VALID,0,VALID,95.9184,VALID,0.0339617,VALID,18.8019,VALID,45,VALID,1.35449,